TimeCST,TemperatureF,Dew PointF,Humidity,Sea Level PressureIn,VisibilityMPH,Wind Direction,Wind SpeedMPH,Gust SpeedMPH,PrecipitationIn,Events,Conditions,WindDirDegrees,DateUTC
12:15 AM,41.0,24.8,53,30.15,10.0,WSW,4.6,-,N/A,,Clear,240,2013-02-01 06:15:00
12:35 AM,39.2,24.8,56,30.15,10.0,WSW,4.6,-,N/A,,Clear,240,2013-02-01 06:35:00
1:15 AM,37.4,26.6,65,30.19,10.0,NW,8.1,-,N/A,,Clear,310,2013-02-01 07:15:00
1:35 AM,42.8,26.6,53,30.19,10.0,West,15.0,21.9,N/A,,Clear,280,2013-02-01 07:35:00
1:55 AM,42.8,26.6,53,30.19,10.0,West,11.5,20.7,N/A,,Clear,280,2013-02-01 07:55:00
2:15 AM,42.8,26.6,53,30.19,10.0,WNW,11.5,16.1,N/A,,Clear,300,2013-02-01 08:15:00
2:35 AM,42.8,28.4,57,30.19,10.0,WNW,10.4,16.1,N/A,,Clear,290,2013-02-01 08:35:00
2:55 AM,41.0,28.4,61,30.20,10.0,WNW,8.1,-,N/A,,Clear,290,2013-02-01 08:55:00
3:15 AM,41.0,28.4,61,30.21,10.0,WNW,8.1,-,N/A,,Clear,300,2013-02-01 09:15:00
3:35 AM,41.0,30.2,65,30.22,10.0,NW,18.4,24.2,N/A,,Mostly Cloudy,320,2013-02-01 09:35:00
3:55 AM,39.2,30.2,70,30.23,10.0,NNW,17.3,24.2,N/A,,Overcast,340,2013-02-01 09:55:00
4:15 AM,37.4,26.6,65,30.25,10.0,North,18.4,23.0,N/A,,Scattered Clouds,350,2013-02-01 10:15:00
4:35 AM,35.6,10.4,35,30.28,10.0,NW,12.7,27.6,N/A,,Clear,310,2013-02-01 10:35:00
4:55 AM,33.8,8.6,35,30.29,10.0,NW,8.1,-,N/A,,Clear,310,2013-02-01 10:55:00
5:15 AM,32.0,10.4,41,30.31,10.0,WNW,6.9,-,N/A,,Clear,300,2013-02-01 11:15:00
5:35 AM,30.2,12.2,47,30.32,10.0,NW,9.2,-,N/A,,Clear,310,2013-02-01 11:35:00
6:15 AM,30.2,15.8,55,30.34,10.0,NW,8.1,-,N/A,,Clear,310,2013-02-01 12:15:00
6:35 AM,28.4,15.8,59,30.35,10.0,NNW,6.9,-,N/A,,Clear,330,2013-02-01 12:35:00
6:55 AM,28.4,15.8,59,30.35,10.0,NW,6.9,-,N/A,,Clear,310,2013-02-01 12:55:00
7:15 AM,28.4,15.8,59,30.37,10.0,NW,9.2,-,N/A,,Clear,310,2013-02-01 13:15:00
7:35 AM,30.2,14.0,51,30.38,10.0,NW,8.1,-,N/A,,Clear,310,2013-02-01 13:35:00
7:55 AM,30.2,15.8,55,30.39,10.0,NW,6.9,-,N/A,,Clear,320,2013-02-01 13:55:00
8:15 AM,30.2,14.0,51,30.40,10.0,North,11.5,17.3,N/A,,Clear,360,2013-02-01 14:15:00
8:35 AM,30.2,12.2,47,30.41,10.0,NNW,9.2,-,N/A,,Clear,330,2013-02-01 14:35:00
8:55 AM,32.0,14.0,48,30.41,10.0,North,8.1,-,N/A,,Clear,10,2013-02-01 14:55:00
9:15 AM,32.0,15.8,51,30.43,10.0,NNW,8.1,-,N/A,,Clear,330,2013-02-01 15:15:00
9:35 AM,33.8,15.8,48,30.43,10.0,North,6.9,16.1,N/A,,Clear,360,2013-02-01 15:35:00
9:55 AM,33.8,15.8,48,30.44,10.0,NNW,6.9,-,N/A,,Clear,340,2013-02-01 15:55:00
10:15 AM,35.6,15.8,44,30.43,10.0,NW,10.4,-,N/A,,Clear,310,2013-02-01 16:15:00
10:35 AM,33.8,15.8,48,30.44,10.0,NW,6.9,-,N/A,,Clear,320,2013-02-01 16:35:00
10:55 AM,35.6,15.8,44,30.44,10.0,NW,11.5,-,N/A,,Clear,310,2013-02-01 16:55:00
11:15 AM,35.6,12.2,38,30.43,10.0,NNW,6.9,-,N/A,,Clear,330,2013-02-01 17:15:00
11:35 AM,37.4,12.2,36,30.43,10.0,NW,8.1,-,N/A,,Clear,320,2013-02-01 17:35:00
12:15 PM,37.4,12.2,36,30.41,10.0,NNW,4.6,-,N/A,,Clear,340,2013-02-01 18:15:00
12:35 PM,39.2,14.0,36,30.41,10.0,NNW,8.1,-,N/A,,Clear,330,2013-02-01 18:35:00
1:15 PM,39.2,10.4,31,30.41,10.0,NW,11.5,17.3,N/A,,Clear,320,2013-02-01 19:15:00
1:35 PM,39.2,8.6,28,30.40,10.0,NNW,11.5,17.3,N/A,,Clear,330,2013-02-01 19:35:00
1:55 PM,39.2,10.4,31,30.40,10.0,North,9.2,-,N/A,,Clear,360,2013-02-01 19:55:00
2:15 PM,39.2,10.4,31,30.40,10.0,NW,5.8,-,N/A,,Clear,320,2013-02-01 20:15:00
2:35 PM,39.2,12.2,33,30.39,10.0,NW,8.1,-,N/A,,Clear,320,2013-02-01 20:35:00
2:55 PM,39.2,10.4,31,30.38,10.0,NNW,8.1,-,N/A,,Clear,340,2013-02-01 20:55:00
3:15 PM,39.2,8.6,28,30.38,10.0,NNW,9.2,-,N/A,,Clear,330,2013-02-01 21:15:00
3:35 PM,39.2,8.6,28,30.38,10.0,NNW,11.5,-,N/A,,Clear,330,2013-02-01 21:35:00
3:55 PM,39.2,8.6,28,30.39,10.0,NW,8.1,-,N/A,,Clear,320,2013-02-01 21:55:00
4:15 PM,39.2,10.4,31,30.39,10.0,NNW,5.8,-,N/A,,Clear,340,2013-02-01 22:15:00
4:35 PM,39.2,8.6,28,30.39,10.0,North,6.9,-,N/A,,Clear,360,2013-02-01 22:35:00
5:15 PM,35.6,10.4,35,30.38,10.0,North,4.6,-,N/A,,Clear,350,2013-02-01 23:15:00
5:35 PM,35.6,10.4,35,30.38,10.0,North,3.5,-,N/A,,Clear,350,2013-02-01 23:35:00
5:55 PM,35.6,10.4,35,30.39,10.0,Calm,Calm,-,N/A,,Clear,0,2013-02-01 23:55:00
6:15 PM,33.8,12.2,41,30.39,10.0,Calm,Calm,-,N/A,,Clear,0,2013-02-02 00:15:00
6:35 PM,30.2,17.6,60,30.39,10.0,Calm,Calm,-,N/A,,Clear,0,2013-02-02 00:35:00
6:55 PM,30.2,15.8,55,30.38,10.0,Calm,Calm,-,N/A,,Clear,0,2013-02-02 00:55:00
7:15 PM,30.2,15.8,55,30.38,10.0,North,3.5,-,N/A,,Clear,350,2013-02-02 01:15:00
7:35 PM,28.4,17.6,64,30.38,10.0,Calm,Calm,-,N/A,,Clear,0,2013-02-02 01:35:00
7:55 PM,28.4,17.6,64,30.38,10.0,Calm,Calm,-,N/A,,Clear,0,2013-02-02 01:55:00
8:15 PM,28.4,17.6,64,30.38,10.0,Calm,Calm,-,N/A,,Clear,0,2013-02-02 02:15:00
8:35 PM,28.4,15.8,59,30.38,10.0,Calm,Calm,-,N/A,,Clear,0,2013-02-02 02:35:00
8:55 PM,26.6,17.6,69,30.38,10.0,Calm,Calm,-,N/A,,Clear,0,2013-02-02 02:55:00
9:15 PM,28.4,15.8,59,30.39,10.0,Calm,Calm,-,N/A,,Clear,0,2013-02-02 03:15:00
9:35 PM,26.6,17.6,69,30.40,10.0,West,3.5,-,N/A,,Clear,270,2013-02-02 03:35:00
9:55 PM,26.6,17.6,69,30.39,10.0,Calm,Calm,-,N/A,,Clear,0,2013-02-02 03:55:00
10:15 PM,26.6,17.6,69,30.39,10.0,Calm,Calm,-,N/A,,Clear,0,2013-02-02 04:15:00
10:35 PM,26.6,17.6,69,30.39,10.0,Calm,Calm,-,N/A,,Clear,0,2013-02-02 04:35:00
10:55 PM,24.8,17.6,74,30.38,10.0,Calm,Calm,-,N/A,,Clear,0,2013-02-02 04:55:00
11:15 PM,24.8,17.6,74,30.37,10.0,Calm,Calm,-,N/A,,Clear,0,2013-02-02 05:15:00
11:35 PM,24.8,17.6,74,30.37,10.0,Calm,Calm,-,N/A,,Clear,0,2013-02-02 05:35:00
11:55 PM,24.8,17.6,74,30.37,10.0,West,3.5,-,N/A,,Clear,270,2013-02-02 05:55:00